EA4TN Weather Reports


time (UTC)temp
C
wind
direction
speed
KPH
gust
KPH
rain 1hr
cm
rain 24hr
cm
rain mn
cm
humidity
%
barometer
mb
20260505065016 12 213 3.2 4.8 0.00 0.00 0.00 66 1013.4
20260505064016 11 230 1.6 6.4 0.00 0.00 0.00 69 1013.3
20260505063036 11 242 1.6 4.8 0.00 0.00 0.00 71 1013.2
20260505062016 10 242 1.6 3.2 0.00 0.00 0.00 74 1013.0
20260505061016 10 242 0.0 4.8 0.00 0.00 0.00 75 1013.1
20260505060016 9 242 1.6 4.8 0.00 0.00 0.00 77 1012.9
20260505055016 9 0.0 0.0 0.00 0.00 0.00 78 1012.7
20260505054016 9 0.0 0.0 0.00 0.00 0.00 78 1012.8
20260505053016 9 0.0 3.2 0.00 0.00 0.00 78 1012.7
20260505052016 9 242 0.0 4.8 0.00 0.00 0.00 77 1012.7
20260505051016 9 242 1.6 4.8 0.00 0.00 0.00 77 1012.6
20260505041016 10 243 0.0 3.2 0.00 0.00 0.00 72 1012.8
20260505040016 10 243 1.6 4.8 0.00 0.00 0.00 72 1012.8
20260505035016 10 243 1.6 3.2 0.00 0.00 0.00 71 1012.7
20260505034016 10 0.0 0.0 0.00 0.00 0.00 71 1012.7
20260505033036 10 243 1.6 4.8 0.00 0.00 0.00 70 1012.7
20260505032016 11 243 3.2 4.8 0.00 0.00 0.00 69 1012.9
20260505031016 11 237 3.2 6.4 0.00 0.00 0.00 67 1012.9
20260505030016 11 256 3.2 6.4 0.00 0.00 0.00 64 1012.9
20260505025016 11 0.0 0.0 0.00 0.00 0.00 63 1013.0
20260505024016 11 316 0.0 3.2 0.00 0.00 0.00 63 1013.0
20260505023056 11 256 1.6 4.8 0.00 0.00 0.00 63 1013.1
20260505022016 11 280 1.6 4.8 0.00 0.00 0.00 62 1013.1
20260505021016 11 0.0 4.8 0.00 0.00 0.00 62 1013.1
20260505020016 12 278 1.6 3.2 0.00 0.00 0.00 61 1013.2
20260505015016 12 337 3.2 6.4 0.00 0.00 0.00 60 1013.2
20260505014016 12 340 1.6 8.0 0.00 0.00 0.00 60 1013.3
20260505013016 12 319 1.6 6.4 0.00 0.00 0.00 60 1013.3
20260505012016 12 23 1.6 11.3 0.00 0.00 0.00 59 1013.3
20260505011016 12 302 3.2 9.7 0.00 0.00 0.00 60 1013.2
20260505010016 12 310 4.8 9.7 0.00 0.00 0.00 61 1013.3
20260505005016 11 301 1.6 4.8 0.00 0.00 0.00 65 1013.2
20260505004016 12 218 1.6 4.8 0.00 0.00 0.00 65 1013.4
20260505003016 12 250 1.6 6.4 0.00 0.00 0.00 64 1013.3
20260505002016 12 293 0.0 3.2 0.00 0.00 0.00 64 1013.4
20260505001016 12 293 1.6 3.2 0.00 0.00 0.00 64 1013.3
20260505000016 12 279 1.6 6.4 0.00 0.00 0.00 65 1013.3
20260504235015 12 193 3.2 6.4 0.00 0.00 0.00 67 1013.4
20260504234016 12 225 3.2 6.4 0.00 0.00 0.00 67 1013.4
20260504233016 12 209 3.2 4.8 0.00 0.00 0.00 66 1013.3
20260504232016 12 194 3.2 8.0 0.00 0.00 0.00 66 1013.3
20260504231016 12 191 3.2 8.0 0.00 0.00 0.00 64 1013.2
20260504230016 12 198 1.6 6.4 0.00 0.00 0.00 63 1013.2
20260504225015 12 0.0 0.0 0.00 0.00 0.00 63 1013.1
20260504224016 12 0.0 0.0 0.00 0.00 0.00 63 1013.0
20260504223015 13 201 0.0 3.2 0.00 0.00 0.00 62 1013.0
20260504222035 13 195 1.6 4.8 0.00 0.00 0.00 62 1013.2
20260504221015 13 239 1.6 4.8 0.00 0.00 0.00 61 1013.2
20260504220136 13 245 0.0 3.2 0.00 0.00 0.00 60 1013.2
20260504215016 13 246 1.6 3.2 0.00 0.00 0.00 59 1013.2
20260504214015 14 219 1.6 4.8 0.00 0.00 0.00 58 1013.3
20260504213015 14 233 1.6 4.8 0.00 0.00 0.00 56 1013.3
20260504212036 15 269 3.2 8.0 0.00 0.00 0.00 55 1013.2
20260504211015 15 281 1.6 4.8 0.00 0.00 0.00 55 1013.1
20260504210016 15 297 3.2 4.8 0.00 0.00 0.00 55 1013.1
20260504205036 15 295 3.2 6.4 0.00 0.00 0.00 55 1013.0
20260504204016 15 289 3.2 9.7 0.00 0.00 0.00 56 1012.9
20260504203036 15 304 3.2 9.7 0.00 0.00 0.00 55 1012.8
20260504202016 15 308 3.2 6.4 0.00 0.00 0.00 55 1012.7
20260504201016 15 301 4.8 11.3 0.00 0.00 0.00 55 1012.5
20260504200156 15 303 3.2 8.0 0.00 0.00 0.00 55 1012.3
20260504195035 15 314 3.2 8.0 0.00 0.00 0.00 54 1012.2
20260504194016 15 317 3.2 8.0 0.00 0.00 0.00 53 1011.9
20260504193016 15 301 3.2 8.0 0.00 0.00 0.00 53 1011.6
20260504192015 16 295 3.2 8.0 0.00 0.00 0.00 53 1011.7
20260504191016 16 324 4.8 12.9 0.00 0.00 0.00 52 1011.5
20260504190016 16 316 9.7 20.9 0.00 0.00 0.00 50 1011.5
20260504185015 17 328 8.0 14.5 0.00 0.00 0.00 49 1011.5
20260504184016 17 332 4.8 14.5 0.00 0.00 0.00 49 1011.4
20260504183016 18 293 8.0 14.5 0.00 0.00 0.00 48 1011.3
20260504182036 18 325 4.8 11.3 0.00 0.00 0.00 48 1011.3
20260504181036 18 308 6.4 14.5 0.00 0.00 0.00 47 1011.3
20260504180016 18 331 6.4 16.1 0.00 0.00 0.00 44 1011.3
20260504175036 18 266 8.0 17.7 0.00 0.00 0.00 39 1011.2
20260504174016 18 264 12.9 19.3 0.00 0.00 0.00 39 1011.2
20260504173016 18 278 8.0 17.7 0.00 0.00 0.00 43 1011.2
20260504172036 19 268 9.7 22.5 0.00 0.00 0.00 39 1011.2
20260504171016 19 275 9.7 20.9 0.00 0.00 0.00 39 1011.2
20260504151016 20 275 14.5 32.2 0.00 0.00 0.00 37 1011.3
20260504141036 19 265 14.5 30.6 0.00 0.00 0.00 44 1011.7
20260504081016 12 255 4.8 8.0 0.00 0.00 0.00 80 1013.0